TimeHST,TemperatureF,Dew PointF,Humidity,Sea Level PressureIn,VisibilityMPH,Wind Direction,Wind SpeedMPH,Gust SpeedMPH,PrecipitationIn,Events,Conditions,WindDirDegrees,DateUTC
12:53 AM,70.0,62.1,76,30.03,10.0,Calm,Calm,-,N/A,,Partly Cloudy,0,2012-11-21 10:53:00
1:53 AM,71.1,63.0,75,30.02,10.0,Calm,Calm,-,N/A,,Mostly Cloudy,0,2012-11-21 11:53:00
2:53 AM,71.1,63.0,75,30.00,10.0,Calm,Calm,-,N/A,,Clear,0,2012-11-21 12:53:00
3:53 AM,70.0,62.1,76,29.98,10.0,Variable,3.5,-,N/A,,Clear,0,2012-11-21 13:53:00
4:53 AM,70.0,62.1,76,29.99,10.0,Calm,Calm,-,N/A,,Mostly Cloudy,0,2012-11-21 14:53:00
5:53 AM,70.0,62.1,76,29.99,10.0,Calm,Calm,-,N/A,,Clear,0,2012-11-21 15:53:00
6:53 AM,70.0,62.1,76,30.01,10.0,Calm,Calm,-,N/A,,Clear,0,2012-11-21 16:53:00
7:53 AM,73.0,64.0,73,30.03,10.0,Calm,Calm,-,N/A,,Clear,0,2012-11-21 17:53:00
8:53 AM,75.9,64.9,69,30.04,10.0,Calm,Calm,-,N/A,,Scattered Clouds,0,2012-11-21 18:53:00
9:53 AM,79.0,66.0,64,30.05,10.0,Variable,6.9,-,N/A,,Mostly Cloudy,0,2012-11-21 19:53:00
10:53 AM,79.0,66.0,64,30.03,10.0,SSE,6.9,-,N/A,,Mostly Cloudy,150,2012-11-21 20:53:00
11:53 AM,79.0,66.9,66,30.00,10.0,SSE,8.1,-,N/A,,Partly Cloudy,150,2012-11-21 21:53:00
12:53 PM,80.1,68.0,67,29.96,10.0,SE,6.9,-,N/A,,Scattered Clouds,140,2012-11-21 22:53:00
1:53 PM,79.0,66.9,66,29.94,10.0,South,5.8,-,N/A,,Mostly Cloudy,170,2012-11-21 23:53:00
2:53 PM,78.1,66.9,68,29.94,10.0,South,6.9,-,N/A,,Mostly Cloudy,180,2012-11-22 00:53:00
3:53 PM,79.0,66.9,66,29.94,10.0,South,5.8,-,N/A,,Scattered Clouds,170,2012-11-22 01:53:00
4:53 PM,77.0,68.0,74,29.94,10.0,SSE,5.8,-,N/A,,Clear,160,2012-11-22 02:53:00
5:53 PM,77.0,66.9,71,29.97,10.0,SSW,4.6,-,N/A,,Scattered Clouds,210,2012-11-22 03:53:00
6:53 PM,75.9,66.9,74,29.99,10.0,South,3.5,-,N/A,,Scattered Clouds,180,2012-11-22 04:53:00
7:53 PM,75.9,68.0,76,30.01,10.0,South,3.5,-,N/A,,Mostly Cloudy,170,2012-11-22 05:53:00
8:53 PM,75.0,68.0,79,30.02,10.0,Calm,Calm,-,N/A,,Scattered Clouds,0,2012-11-22 06:53:00
9:53 PM,73.9,66.9,79,30.02,10.0,Calm,Calm,-,N/A,,Scattered Clouds,0,2012-11-22 07:53:00
10:13 PM,73.4,66.2,78,30.00,10.0,ENE,3.5,-,N/A,,Mostly Cloudy,70,2012-11-22 08:13:00
10:31 PM,73.4,66.2,78,30.00,10.0,Calm,Calm,-,N/A,,Scattered Clouds,0,2012-11-22 08:31:00
10:53 PM,72.0,66.0,81,30.01,10.0,Calm,Calm,-,N/A,,Unknown,0,2012-11-22 08:53:00
11:53 PM,71.1,66.0,84,29.99,10.0,Calm,Calm,-,N/A,,Unknown,0,2012-11-22 09:53:00